Location: Torrington
(42.0650°N, 104.1810°W)
Time: 06:38:39
(UTC-06:00)

Daily predictions for brighter satellites

Satellite Brightness Start Highest point End
(mag) Time Altitude Azimuth Time Altitude Azimuth Time Altitude Azimuth
Cosmos 1437 3.3 21:06:49 10° SSE 21:09:55 41° E 21:13:03 10° NNE
Cosmos 1833 4.3 21:04:17 10° SSW 21:09:59 86° ESE 21:15:41 10° NNE
Cosmos 1151 Rocket 3.0 21:08:02 10° N 21:12:21 71° E 21:16:40 10° SSE
H-2A R/B 4.5 21:10:18 10° SSW 21:13:45 32° W 21:17:12 10° NNW
Cosmos 2333 Rocket 3.9 21:09:40 10° N 21:13:51 20° NE 21:18:02 10° E
USA 186 3.9 21:15:14 10° SW 21:16:40 15° W 21:18:09 10° NW
Meteor 2-20 Rocket 4.5 21:11:05 10° S 21:17:12 72° E 21:23:19 10° NNE
Cosmos 1437 Rocket 3.3 21:16:11 10° NNW 21:19:57 58° W 21:23:44 10° S
BREEZE-M DEB (TANK) 4.3 21:19:39 10° NW 21:21:08 16° N 21:22:34 10° NE
ERBS 4.3 21:23:13 10° SE 21:24:35 12° ESE 21:25:57 10° E
Cosmos 1939 Rocket 2.8 21:21:49 10° SSE 21:25:45 84° WSW 21:29:39 10° NNW
Cosmos 2297 Rocket 4.1 21:25:39 10° E 21:25:52 10° E 21:26:06 10° E
COSMOS 2428 3.0 21:20:38 10° NNW 21:26:13 55° ENE 21:31:38 11° SE
ATLAS 2AS CENTAUR R/B 4.2 21:21:38 10° SE 21:26:33 19° ESE 21:31:42 10° ENE
ERS-1 Rocket 3.5 21:22:00 10° S 21:26:58 61° WSW 21:31:58 10° NNW
ARGOS 4.2 21:22:27 10° SE 21:27:10 32° ENE 21:31:53 10° N
Cosmos 1805 Rocket 4.0 21:24:03 10° SSE 21:28:16 43° E 21:32:29 10° NNE
Envisat 3.0 21:23:44 10° SSE 21:28:49 84° ENE 21:33:55 10° NNW
Cosmos 2219 Rocket 3.3 21:24:57 10° N 21:29:54 31° NE 21:34:43 10° ESE
Terra 3.9 21:27:56 10° E 21:30:16 14° ENE 21:32:37 10° NNE
Cosmos 2266 Rocket 4.2 21:27:56 10° S 21:34:13 81° W 21:40:26 10° N
Cosmos 1726 3.1 21:32:10 10° N 21:35:38 33° ENE 21:38:27 14° SE
OTV 4 2.5 21:34:28 10° S 21:35:43 13° SSE 21:35:43 13° SSE
CZ-4 SHROUD 3.2 21:34:49 11° SSE 21:37:44 68° ENE 21:40:52 10° N
ATLAS 3B R/B 4.4 21:32:20 10° NNW 21:38:00 24° NNE 21:43:22 10° E
Cosmos 2112 Rocket 4.2 21:38:20 10° NNW 21:43:34 72° WSW 21:48:49 10° S
Cosmos 2315 Rocket 4.0 21:37:20 10° N 21:43:35 81° E 21:49:47 10° S
OAO 2 Rocket 4.3 21:39:06 10° SW 21:43:42 30° SSE 21:48:06 11° ESE
H-2A R/B 2.9 21:40:47 10° S 21:45:11 51° W 21:49:36 10° NNW
Cosmos 1707 Rocket 3.6 21:42:20 10° N 21:46:41 62° E 21:50:25 14° SSE
Tiangong 1 1.2 21:44:37 10° WSW 21:47:38 50° SSE 21:50:39 10° E
Cosmos 1937 Rocket 4.1 21:43:04 10° SSE 21:47:49 36° ESE 21:52:31 10° NE
Cosmos 2237 4.2 21:42:03 10° NNW 21:47:49 86° ENE 21:52:49 14° SSE
NOSS 3-1 (C) 3.4 21:43:44 10° SSW 21:49:33 76° ESE 21:56:03 10° NE
Cosmos 1328 4.1 21:46:53 10° SSW 21:50:48 68° W 21:54:46 10° N
Cosmos 1666 Rocket 3.7 21:46:40 10° S 21:50:58 56° E 21:55:19 10° NNE
Meteor 2-11 Rocket 4.5 21:46:34 10° N 21:52:42 68° E 21:58:10 13° SSE
Meteor 1-4 Rocket 3.3 21:49:51 10° N 21:53:23 38° ENE 21:55:32 19° SE
Cosmos 2298 Rocket 4.0 21:49:17 10° S 21:54:33 69° ESE 21:59:51 10° NNE
CZ-4 R/B 4.3 21:52:48 10° NNE 21:57:31 43° E 22:01:18 15° SSE
Cosmos 2219 3.5 21:52:13 10° SSW 21:57:57 74° WNW 22:03:44 10° NNE
CZ-4C R/B 4.3 21:57:17 18° ESE 21:59:00 26° ENE 22:01:57 10° NNE
Cosmos 1244 Rocket 4.5 21:53:12 10° S 21:59:30 79° E 22:05:47 10° N
Cosmos 1271 Rocket 3.2 21:57:52 10° N 22:01:35 45° ENE 22:03:46 22° SE
Cosmos 2237 Rocket 3.1 21:57:51 10° N 22:03:10 38° ENE 22:07:04 17° ESE
Cosmos 1470 Rocket 4.5 22:02:37 20° SE 22:04:43 30° E 22:08:30 10° NNE
Cosmos 2333 4.2 21:59:26 10° NNW 22:05:12 88° ENE 22:09:33 18° SSE
Cosmos 2082 4.4 22:04:50 16° SSE 22:08:49 35° ESE 22:13:58 10° NE
Cosmos 1703 3.5 22:07:52 21° SSE 22:10:09 48° E 22:13:56 10° NNE
Iridium 2 4.3 22:08:27 24° SE 22:10:16 39° E 22:13:53 10° NNE
MetOp-B 4.4 22:05:20 12° S 22:10:19 67° WSW 22:15:40 10° NNW
CZ-4B R/B 3.5 22:05:04 10° NNE 22:10:22 82° ESE 22:15:32 10° SSW
SL-14 R/B 3.3 22:07:01 11° S 22:10:50 86° W 22:14:53 10° N
Cosmos 2360 Rocket 3.7 22:08:39 10° NW 22:13:29 30° WSW 22:18:18 10° SSW
DELTA 2 R/B(2) 3.7 22:12:49 10° WSW 22:14:34 48° S 22:14:46 46° SSE
Cosmos 1745 Rocket 4.1 22:12:01 16° SSE 22:16:58 58° E 22:23:00 10° NNE
Cosmos 1626 3.2 22:16:07 25° ESE 22:17:05 28° E 22:20:21 10° NNE
NOSS 0 Rocket 4.1 22:11:10 10° NNW 22:17:19 66° ENE 22:21:22 22° SE
NOAA 11 4.2 22:14:29 19° SSE 22:18:27 83° ENE 22:23:57 10° NNW
H-2A R/B 2.6 22:17:35 22° SE 22:20:48 48° ENE 22:26:01 10° N
MINOTAUR R/B 4.5 22:22:27 10° NNW 22:25:33 84° ENE 22:26:27 43° SSE
SPOT 5 4.2 22:21:32 10° SSW 22:25:42 34° W 22:30:06 10° NNW
Delta 2 Rocket 4.1 22:22:54 10° WSW 22:25:47 24° SSW 22:25:47 24° SSW
YAOGAN 6 3.7 22:24:39 16° SSW 22:27:11 40° W 22:30:36 10° NNW
Cosmos 1898 Rocket 3.9 22:27:19 10° SSW 22:32:27 64° WNW 22:37:39 10° NNE
Lacrosse 4 Rocket 3.2 22:28:56 10° N 22:32:31 23° NE 22:34:53 16° E
SPOT 1/Viking Rocket 4.0 22:29:28 17° S 22:33:18 57° W 22:38:24 10° NNW
Cosmos 1300 4.3 22:32:34 10° NNW 22:35:59 30° W 22:38:52 13° SSW
Cosmos 1125 Rocket 4.4 22:37:09 27° SE 22:38:34 31° E 22:43:12 10° NE
Cosmos 1386 Rocket 4.5 22:35:29 24° SSE 22:39:11 63° E 22:45:07 10° NNE
Cosmos 2227 Rocket 2.1 22:37:27 15° SSW 22:42:06 70° ESE 22:47:45 10° NNE
Cosmos 2242 Rocket 4.2 22:39:46 10° NNW 22:44:08 53° W 22:46:51 22° SSW
Sich 1 4.2 22:40:17 10° SSW 22:44:29 42° WNW 22:48:40 10° N
Cosmos 292 Rocket 4.2 22:40:04 10° NNW 22:44:44 54° WSW 22:47:11 26° S
Cosmos 1862 Rocket 3.5 22:41:17 10° N 22:45:39 72° E 22:47:12 38° SSE
CARTOSAT-1 3.5 22:45:15 37° SSE 22:46:55 74° ENE 22:51:14 10° N
Cosmos 1633 Rocket 4.3 22:45:35 10° SSW 22:49:41 39° WNW 22:53:48 10° N
SAR-Lupe-2 3.7 22:49:29 48° SE 22:50:12 61° ENE 22:53:45 10° N
Landsat 7 3.9 22:49:13 30° S 22:51:32 73° WSW 22:56:19 10° NNW
Cosmos 1933 4.3 22:48:38 10° N 22:52:20 33° ENE 22:53:05 31° E
Cosmos 1346 3.1 22:52:16 59° SW 22:52:42 74° W 22:55:44 10° N
COSMOS 2455 3.3 22:48:11 10° NNW 22:54:04 51° NE 22:57:11 27° ESE
NOSS 3-1 (A) 4.2 22:48:30 10° SW 22:54:19 54° NW 23:00:49 10° NNE
SL-16 R/B 2.8 22:52:00 10° NNW 22:57:28 46° ENE 23:00:04 28° ESE
Cosmos 1455 2.2 22:54:42 10° N 22:58:31 78° W 22:59:31 48° S
Cosmos 2333 Rocket 2.3 22:52:58 10° NNW 22:58:43 71° WSW 23:01:24 32° S
ERBS 2.7 22:57:30 10° SW 23:00:58 66° NW 23:04:27 10° NE
Cosmos 44 Rocket 4.4 23:02:33 28° ESE 23:02:33 28° ESE 23:06:44 10° NE
ARGOS 4.4 23:03:47 17° SSW 23:07:18 35° W 23:12:14 10° NNW
Terra 1.9 23:05:35 37° S 23:07:24 72° WSW 23:12:11 10° NNW
Cosmos 2297 Rocket 2.1 23:05:33 25° SSW 23:08:56 80° ESE 23:14:37 10° NNE
DMSP B5D2-2 4.1 23:07:01 10° NNE 23:12:16 81° WNW 23:15:01 29° SSW
Cosmos 2219 Rocket 3.1 23:08:44 10° NW 23:13:55 40° WSW 23:16:27 26° SSW
IGS 5A 3.7 23:12:54 44° SSW 23:14:00 63° WSW 23:18:10 10° NNW
Cosmos 1869 Rocket 4.0 23:13:38 42° ESE 23:14:07 43° E 23:18:22 10° NNE
Spot 4 3.9 23:13:36 42° S 23:15:14 78° WSW 23:20:08 10° NNW
ATLAS 2AS CENTAUR R/B 3.0 23:08:55 10° SSW 23:16:26 89° ESE 23:24:33 10° NE
BREEZE-M TANK 3.9 23:02:22 10° WSW 23:21:15 84° NNW 23:25:20 10° ENE
COS B Rocket 3.6 23:19:16 10° NNE 23:23:05 51° E 23:23:16 51° E
Cosmos 1900 4.2 23:19:10 10° NNW 23:24:10 86° ENE 23:25:23 52° SE
Tiangong 1 2.2 23:21:05 10° W 23:23:07 37° W 23:23:07 37° W
Cosmos 1869 4.1 23:21:23 10° NNW 23:25:17 46° W 23:26:11 38° SW
OAO 2 Rocket 4.1 23:23:04 10° WSW 23:27:04 36° SSW 23:27:04 36° SSW
ATLAS 3B R/B 2.6 23:22:42 10° NW 23:29:46 87° NE 23:32:30 39° SE
ALOS 2 4.2 23:30:07 22° E 23:31:00 23° ENE 23:34:28 10° NNE
Okean 1-7 3.1 23:31:12 10° N 23:35:25 58° E 23:35:44 57° E
Meteor 1-26 Rocket 4.2 23:35:12 10° N 23:40:51 73° E 23:42:25 48° SSE
USA 238 DEB 4.2 23:35:05 10° NNW 23:42:01 56° NE 23:45:45 28° ESE
USA 238 4.2 23:35:12 10° NNW 23:42:07 55° NE 23:45:52 27° ESE
Cosmos 1703 Rocket 3.7 23:42:30 10° NNW 23:46:50 62° W 23:47:23 56° SW
Cosmos 2237 Rocket 3.3 23:42:05 10° NW 23:47:07 33° WSW 23:48:54 27° SW
NOSS 2-3 (E) 3.8 23:49:52 54° SSW 23:51:01 81° ESE 23:56:40 10° NE
Cosmos 1892 4.2 23:52:20 26° ENE 23:52:20 26° ENE 23:54:49 10° NNE
Cosmos 2251 Rocket 4.1 23:46:28 10° N 23:51:37 47° ENE 23:52:57 39° ESE
